[[{"header":{"parameterUnit":"m.s-1","parameterCategory":1,"la1":30.2991,"la2":30.254,"lo1":-89.0895,"lo2":-89.0444,"dy":0.0017,"dx":0.0017,"nx":28,"ny":28,"refTime":"2023-08-05T09:00:00:Z","depth":0,"parameterNumber":2,"parameterNumberName":"U-component_of_WINDS"},"data":[0,0,0,0,0,0,0,0,0,0,0,0,0,0,0,0,0,0,0,0,0,0,0,0,0,0,0,0,0,0,0,0,0,0,0,0,0,0,0,0,0,0,0,0,0,0,0,0,0,0,0,0,0,0,0,0,0,0,5.6614,5.6615,0,5.6702,5.6703,5.6704,5.6614,5.6611,5.6607,5.6604,5.6692,5.6697,5.6703,0,0,0,0,0,0,0,0,0,0,0,0,0,5.6365,5.637,5.6614,5.6615,5.6616,5.6701,5.6703,5.6704,5.6615,5.661,5.6606,5.6602,5.669,5.6697,5.6703,0,0,0,0,0,0,0,0,0,0,0,0,0,5.6465,5.6372,5.6614,5.6582,5.658,5.6701,5.6703,5.6704,5.6616,5.661,5.6605,5.66,5.6688,5.6696,5.6704,5.6861,0,0,5.673,5.6734,0,0,0,0,0,0,0,0,5.6459,5.6474,5.6585,5.6584,5.6582,5.6642,5.6647,5.6757,5.6617,5.6602,5.6604,5.6598,5.6679,5.6688,5.6716,5.6865,5.6869,5.6731,5.6736,5.6739,5.6742,0,0,0,0,0,0,0,5.6452,5.647,5.6648,5.6587,5.6585,5.6562,5.657,5.6667,5.6669,5.6603,5.6597,5.6608,5.6677,5.6708,5.6717,5.687,5.673,5.6738,5.6743,5.6746,5.7147,5.7152,0,0,0,0,0,0,5.6449,5.6465,5.6646,5.6651,5.6507,5.6571,5.658,5.6628,5.6668,5.6669,5.6613,5.6604,5.6696,5.6708,5.672,5.6902,5.6739,5.6747,5.6752,5.7141,5.7148,5.7154,0,0,0,0,0,0,5.6444,5.6467,5.6642,5.6556,5.6577,5.658,5.6635,5.6632,5.6663,5.6675,5.6674,5.6644,5.6693,5.6708,5.6825,5.6904,5.6751,5.6759,5.7134,5.7143,5.7151,5.7269,0,0,0,0,0,0,5.6438,5.6465,5.6526,5.6558,5.6582,5.6748,5.664,5.6638,5.6678,5.6667,5.6704,5.6705,5.669,5.6813,5.6834,5.6913,5.6765,5.7127,5.7138,5.7148,5.7258,5.7281,5.73,0,0,0,0,0,5.6429,5.6557,5.6529,5.6552,5.6658,5.6752,5.6766,5.6746,5.6685,5.6744,5.6751,5.6704,5.6893,5.6826,5.6848,5.6931,5.7122,5.7135,5.7147,5.7249,5.7276,5.73,0,0,0,0,0,0,5.6533,5.656,5.6531,5.6673,5.6711,5.6737,5.6812,5.6776,5.6832,5.6819,5.6792,5.6801,5.6924,5.694,5.6865,5.7082,5.6997,5.7015,5.7067,5.7093,5.7113,5.7105,5.6772,0,0,0,0,0,5.6573,5.6649,5.6668,5.6791,5.6812,5.6809,5.685,5.6831,5.6869,5.6884,5.69,5.6939,5.7006,5.7051,5.7114,5.7261,5.7265,5.7329,5.7349,5.7366,5.7381,5.7455,5.7482,5.7195,5.7195,5.7195,0,0,5.6655,5.6679,5.6729,5.6812,5.684,5.6916,5.6823,5.691,5.6965,5.6897,5.7008,5.7021,5.7062,5.7193,5.7252,5.721,5.7461,5.7382,5.7396,5.7401,5.7471,5.7498,5.7522,5.7204,5.7202,5.7201,0,0,5.6844,5.6871,5.6975,5.7004,5.7046,5.7043,5.7068,5.71,5.7105,5.7216,5.7165,5.7231,5.7349,5.7379,5.7409,5.7606,5.7563,5.7628,5.7735,5.7808,5.783,5.785,5.7916,5.7941,5.7643,5.7643,5.7644,0,5.694,5.7055,5.7032,5.7121,5.7158,5.71,5.7203,5.7232,5.7293,5.7319,5.7271,5.7415,5.7439,5.7574,5.7622,5.765,5.7675,5.7622,5.7829,5.7849,5.7867,5.793,5.7955,5.7651,5.765,5.7649,5.7648,0,5.7169,5.725,5.7328,5.7387,5.7433,5.7529,5.7518,5.7567,5.7544,5.7546,5.7657,5.7683,5.7748,5.778,5.7759,5.7912,5.7883,5.7834,5.7747,5.7902,5.796,5.7984,5.7661,5.7658,5.7656,5.7654,0,0,5.7425,5.7469,5.7498,5.7522,5.7564,5.7625,5.7717,5.778,5.7821,5.7865,5.7939,5.8039,5.7991,5.8026,5.8008,5.8072,5.8221,5.8013,5.8014,5.8047,5.8386,5.842,5.8449,5.8194,5.8199,5.8202,5.8381,0,5.7611,5.777,5.7752,5.7903,5.7974,5.792,5.7999,5.8032,5.8035,5.8095,5.8099,5.8168,5.8103,5.8123,5.8185,5.819,5.8288,5.8177,5.8259,5.8262,5.8247,5.848,5.8518,5.8685,5.8404,5.8408,5.8411,0,5.7849,5.79,5.8059,5.8086,5.8115,5.8187,5.8241,5.8301,5.8336,5.8334,5.8371,5.8341,5.843,5.8344,5.8465,5.839,5.8423,5.843,5.8436,5.844,5.8343,5.8486,5.8739,5.8762,5.8447,5.8444,5.8442,0,5.8014,5.8123,5.8231,5.8254,5.829,5.834,5.8358,5.8388,5.8426,5.8474,5.8498,5.8556,5.8587,5.8632,5.8617,5.8556,5.8739,5.8653,5.8737,5.8737,5.8775,5.8772,5.9032,5.8803,5.8803,5.8802,5.8802,0,5.8222,5.832,5.8305,5.8371,5.8478,5.8455,5.8561,5.8571,5.8598,5.8663,5.862,5.8682,5.866,5.872,5.8709,5.8808,5.8823,5.8822,5.8817,5.8823,5.8823,5.8842,5.8828,5.8809,5.8807,5.8806,5.8805,0,5.8424,5.8418,5.8531,5.8555,5.8563,5.864,5.866,5.872,5.872,5.8803,5.8821,5.882,5.8888,5.8878,5.8954,5.8946,5.9068,5.9052,5.9056,5.9051,5.9133,5.9124,5.9411,5.9446,5.9198,5.9201,5.9203,0,5.8554,5.8628,5.8659,5.87,5.872,5.8787,5.8825,5.8805,5.8846,5.889,5.8945,5.9009,5.9058,5.9169,5.9174,5.9231,5.9213,5.931,5.9221,5.9224,5.9209,5.9203,5.9208,5.9326,5.9329,5.9331,5.9333,0,5.8786,5.8779,5.8836,5.8892,5.8938,5.8981,5.902,5.9055,5.9038,5.9086,5.9155,5.9194,5.927,5.9333,5.9386,5.9401,5.9363,5.9361,5.9383,5.9388,5.9386,5.9384,5.9099,5.9354,5.9352,5.935,5.9349,5.9348,5.8953,5.9014,5.9045,5.9109,5.9136,5.9172,5.9229,5.9235,5.9292,5.9352,5.9337,5.9414,5.9444,5.9511,5.9532,5.959,5.9554,5.9587,5.9594,5.9602,5.9609,5.938,5.9601,5.96,5.9599,5.9599,5.9598,0,5.9178,5.9195,5.9254,5.9308,5.9358,5.9319,5.9359,5.9403,5.9471,5.9503,5.9552,5.9629,5.9689,5.9699,5.9755,5.9799,5.9783,5.9814,5.9809,5.9812,5.964,5.9614,5.9826,5.9826,5.9826,5.9826,5.9826,5.9826,5.9301,5.9401,5.9397,5.9509,5.9525,5.9599,5.9625,5.9657,5.9681,5.9769,5.9819,5.9825,5.9847,5.9904,5.9956,5.9957,5.9978,6.0015,6.0009,5.9848,5.9825,5.9803,5.9778,6.0021,6.0021,6.0175,6.0177,6.0178]},{"header":{"parameterUnit":"m.s-1","parameterCategory":1,"la1":30.2991,"la2":30.254,"lo1":-89.0895,"lo2":-89.0444,"dy":0.0017,"dx":0.0017,"nx":28,"ny":28,"refTime":"2023-08-05T09:00:00:Z","depth":0,"parameterNumber":3,"parameterNumberName":"V-component_of_WINDS"},"data":[0,0,0,0,0,0,0,0,0,0,0,0,0,0,0,0,0,0,0,0,0,0,0,0,0,0,0,0,0,0,0,0,0,0,0,0,0,0,0,0,0,0,0,0,0,0,0,0,0,0,0,0,0,0,0,0,0,0,3.8205,3.8206,0,3.8294,3.8295,3.8296,3.8276,3.8275,3.8273,3.8271,3.8359,3.8363,3.8366,0,0,0,0,0,0,0,0,0,0,0,0,0,3.8013,3.8017,3.8205,3.8206,3.8207,3.8294,3.8295,3.8296,3.8277,3.8275,3.8273,3.8271,3.8358,3.8362,3.8367,0,0,0,0,0,0,0,0,0,0,0,0,0,3.8099,3.8018,3.8205,3.8208,3.8209,3.8293,3.8295,3.8296,3.8277,3.8275,3.8272,3.827,3.8356,3.8362,3.8367,3.8453,0,0,3.8385,3.8388,0,0,0,0,0,0,0,0,3.8094,3.8106,3.8206,3.8208,3.8209,3.8272,3.8259,3.8349,3.8278,3.8251,3.8271,3.8269,3.8332,3.8339,3.8361,3.8457,3.8461,3.8386,3.8389,3.8392,3.8393,0,0,0,0,0,0,0,3.8088,3.8102,3.824,3.8208,3.821,3.8203,3.8213,3.8276,3.8304,3.8253,3.8252,3.8263,3.8332,3.8356,3.8363,3.8462,3.8385,3.8391,3.8394,3.8396,3.8629,3.8632,0,0,0,0,0,0,3.8081,3.8097,3.8237,3.8243,3.8144,3.8209,3.8219,3.8254,3.8303,3.8309,3.8265,3.8262,3.8347,3.8356,3.8366,3.8468,3.8392,3.8397,3.84,3.8626,3.863,3.8632,0,0,0,0,0,0,3.8077,3.8094,3.8233,3.8169,3.8187,3.8215,3.8254,3.8257,3.8281,3.8312,3.8317,3.8285,3.8345,3.8358,3.8431,3.847,3.84,3.8405,3.8623,3.8627,3.8631,3.8672,0,0,0,0,0,0,3.8072,3.8093,3.8127,3.817,3.819,3.8299,3.8256,3.8261,3.8291,3.8288,3.8332,3.8337,3.8344,3.8422,3.8437,3.8477,3.8409,3.862,3.8625,3.863,3.8668,3.8677,3.8686,0,0,0,0,0,3.8065,3.8135,3.8129,3.8146,3.8234,3.8301,3.8312,3.8321,3.8295,3.8328,3.8348,3.8335,3.8464,3.843,3.8446,3.8489,3.8617,3.8623,3.8629,3.8664,3.8675,3.8685,0,0,0,0,0,0,3.8094,3.814,3.8134,3.8221,3.8257,3.8298,3.834,3.8333,3.8377,3.8372,3.838,3.839,3.8464,3.8483,3.8445,3.8572,3.8536,3.8546,3.8557,3.8569,3.8577,3.8571,3.8414,0,0,0,0,0,3.8111,3.8163,3.82,3.8272,3.8291,3.8313,3.8342,3.8346,3.8383,3.8398,3.8424,3.8459,3.8507,3.8539,3.8585,3.867,3.8678,3.8707,3.8716,3.8723,3.8731,3.8775,3.8788,3.8652,3.8652,3.8652,0,0,3.8145,3.8177,3.821,3.8279,3.8308,3.836,3.8326,3.8383,3.8421,3.8407,3.8477,3.8497,3.8537,3.8616,3.8652,3.8634,3.8771,3.8731,3.8737,3.8741,3.8783,3.8796,3.8807,3.8657,3.8656,3.8655,0,0,3.8235,3.8265,3.8328,3.8357,3.8401,3.8414,3.8429,3.8471,3.8483,3.8555,3.8544,3.8589,3.8672,3.8701,3.8726,3.8824,3.8813,3.8839,3.8886,3.8928,3.8939,3.8949,3.8982,3.8994,3.8847,3.8847,3.8847,0,3.8272,3.8352,3.836,3.8418,3.8448,3.8438,3.85,3.8527,3.8584,3.8604,3.8584,3.8687,3.8714,3.8798,3.8822,3.8843,3.8859,3.8834,3.8937,3.8947,3.8956,3.8987,3.9,3.8849,3.8849,3.8849,3.8849,0,3.8394,3.8449,3.8494,3.8549,3.8584,3.8644,3.866,3.8693,3.8693,3.8708,3.8779,3.881,3.8862,3.8882,3.8882,3.8966,3.8953,3.8935,3.8899,3.8971,3.9001,3.9013,3.8853,3.8852,3.8852,3.8851,0,0,3.8505,3.8564,3.858,3.8604,3.8651,3.8693,3.875,3.8802,3.883,3.8868,3.8916,3.8986,3.8969,3.8998,3.9001,3.9038,3.9111,3.9015,3.9016,3.9031,3.9203,3.9215,3.923,3.9105,3.9107,3.9109,3.9199,0,3.8598,3.8702,3.871,3.8803,3.8852,3.8842,3.8892,3.8925,3.894,3.8983,3.8999,3.9048,3.9023,3.904,3.9077,3.9095,3.9146,3.9088,3.9147,3.9149,3.9136,3.9245,3.9259,3.9343,3.9211,3.9213,3.9214,0,3.872,3.8763,3.8861,3.8899,3.892,3.8965,3.9011,3.9053,3.9089,3.9097,3.9129,3.9126,3.9183,3.9145,3.9223,3.9184,3.9208,3.922,3.9223,3.9228,3.9185,3.9252,3.937,3.9382,3.9233,3.9231,3.923,0,3.8789,3.8871,3.894,3.8961,3.9007,3.9039,3.9059,3.9093,3.9123,3.9163,3.9181,3.9227,3.9252,3.9287,3.9295,3.9267,3.9372,3.9335,3.9379,3.9378,3.9401,3.9399,3.9523,3.9418,3.9418,3.9418,3.9418,0,3.8892,3.8951,3.8971,3.9014,3.9079,3.9087,3.9152,3.917,3.92,3.9244,3.9238,3.9278,3.9288,3.933,3.9338,3.94,3.9411,3.9418,3.9419,3.9418,3.9417,3.9433,3.9427,3.9421,3.942,3.942,3.9419,0,3.898,3.8996,3.907,3.9108,3.9118,3.9165,3.9196,3.9236,3.9249,3.9305,3.9318,3.9339,3.9388,3.9401,3.9459,3.9464,3.9536,3.9533,3.9525,3.9524,3.9566,3.9562,3.9704,3.9723,3.9607,3.9608,3.9609,0,3.9044,3.909,3.9132,3.9161,3.9183,3.9231,3.9261,3.927,3.9301,3.9344,3.9378,3.9426,3.9466,3.9544,3.9564,3.9608,3.9604,3.9651,3.961,3.9607,3.9603,3.96,3.9603,3.9658,3.966,3.9661,3.9661,0,3.9154,3.916,3.9204,3.925,3.9286,3.9323,3.9358,3.9382,3.9396,3.943,3.9481,3.9512,3.9571,3.9618,3.9663,3.9682,3.9673,3.9674,3.9686,3.9685,3.9678,3.9681,3.9544,3.9671,3.967,3.9669,3.9668,3.9668,3.9232,3.9271,3.9307,3.9355,3.9382,3.9415,3.9453,3.9472,3.9514,3.9564,3.9566,3.9621,3.9653,3.9712,3.9733,3.9775,3.976,3.9778,3.9782,3.9786,3.9789,3.9672,3.9783,3.9783,3.9782,3.9782,3.9782,0,3.934,3.9363,3.9407,3.9457,3.9494,3.9484,3.9522,3.9553,3.9602,3.9634,3.9672,3.9729,3.9775,3.9797,3.9842,3.987,3.9867,3.9882,3.9879,3.9883,3.9801,3.9785,3.9883,3.9883,3.9883,3.9883,3.9883,3.9883,3.9402,3.9467,3.9476,3.9554,3.9575,3.963,3.9652,3.9681,3.9706,3.977,3.9808,3.9823,3.985,3.9897,3.9937,3.9942,3.9958,3.9974,3.9978,3.99,3.9889,3.9879,3.9865,3.9978,3.9978,4.0057,4.0057,4.0058]}]]